Location: Nelson
(41.2830°S, 173.2830°E)
Time: 16:32:31
(UTC+12:00)

Cosmos 2263 Rocket - Pass Details

Date: 24 January 2019
Orbit: 825 x 847 km, 71.0° (Epoch: 20 April)

Event Time Altitude Azimuth Distance (km) Brightness Sun altitude
Rises 21:37:08 0° 200° (SSW) 3,416 6.3 -7.6°
Reaches altitude 10° 21:39:41 10° 194° (SSW) 2,479 5.4 -8.0°
Maximum altitude 21:45:12 49° 119° (ESE) 1,092 2.6 -8.9°
Enters shadow 21:50:19 12° 46° (NE) 2,337 3.8 -9.6°
